[[{"header":{"parameterUnit":"m.s-1","parameterCategory":2,"la1":30.2991,"la2":30.254,"lo1":-89.0895,"lo2":-89.0444,"dy":0.0017,"dx":0.0017,"nx":28,"ny":28,"refTime":"2023-09-03T03:00:00:Z","depth":"0","parameterNumber":2,"parameterNumberName":"U-component_of_CURRENTS"},"data":[0,0,0,0,0,0,0,0,0,0,0,0,0,0,0,0,0,0,0,0,0,0,0,0,0,0,0,0,0,0,0,0,0,0,0,0,0,0,0,0,0,0,0,0,0,0,0,0,0,0,0,0,0,0,0,0,0,0,-0.0014,-0.0014,0,-0.003,-0.0031,-0.0031,-0.0039,-0.0039,-0.0039,-0.0039,-0.0042,-0.0042,-0.0042,0,0,0,0,0,0,0,0,0,0,0,0,0,0.0021,0.002,-0.0014,-0.0014,-0.0014,-0.003,-0.0031,-0.0031,-0.0039,-0.0039,-0.0039,-0.0039,-0.0042,-0.0042,-0.0042,0,0,0,0,0,0,0,0,0,0,0,0,0,0.0005,0.002,-0.0014,-0.0021,-0.0021,-0.003,-0.0031,-0.0031,-0.0039,-0.0039,-0.0039,-0.0039,-0.0042,-0.0042,-0.0042,-0.0042,0,0,-0.0042,-0.0042,0,0,0,0,0,0,0,0,0.0006,0.0004,-0.0019,-0.002,-0.0021,-0.0033,-0.0019,-0.0034,-0.0039,-0.0032,-0.0039,-0.0039,-0.0038,-0.0038,-0.0041,-0.0042,-0.0042,-0.0042,-0.0042,-0.0042,-0.0042,0,0,0,0,0,0,0,0.0007,0.0005,-0.002,-0.002,-0.0021,-0.0019,-0.0021,-0.0022,-0.0034,-0.0033,-0.0033,-0.0035,-0.0038,-0.0041,-0.0041,-0.0042,-0.0042,-0.0042,-0.0042,-0.0042,-0.0034,-0.0034,0,0,0,0,0,0,0.0008,0.0005,-0.002,-0.0021,-0.0007,-0.002,-0.0022,-0.0029,-0.0034,-0.0036,-0.0035,-0.0036,-0.0041,-0.0041,-0.0041,-0.0039,-0.0042,-0.0042,-0.0042,-0.0034,-0.0034,-0.0034,0,0,0,0,0,0,0.0009,0.0006,-0.0019,-0.0008,-0.0011,-0.002,-0.0028,-0.0029,-0.0034,-0.0037,-0.0037,-0.0038,-0.0041,-0.0041,-0.0041,-0.0039,-0.0042,-0.0042,-0.0035,-0.0034,-0.0034,-0.0036,0,0,0,0,0,0,0.001,0.0006,0.0003,-0.0008,-0.0012,-0.0025,-0.0028,-0.003,-0.0035,-0.0036,-0.0039,-0.004,-0.0041,-0.004,-0.0041,-0.0039,-0.0042,-0.0035,-0.0034,-0.0034,-0.0036,-0.0036,-0.0035,0,0,0,0,0,0.0011,0.0005,0.0003,-0.0,-0.0016,-0.0026,-0.0027,-0.0034,-0.0035,-0.0038,-0.0038,-0.004,-0.0037,-0.004,-0.0041,-0.0039,-0.0035,-0.0035,-0.0034,-0.0036,-0.0036,-0.0035,0,0,0,0,0,0,0.0018,0.0003,0.0,-0.001,-0.0017,-0.0027,-0.0031,-0.0034,-0.0037,-0.0037,-0.0039,-0.0039,-0.0037,-0.0037,-0.004,-0.0034,-0.0036,-0.0035,-0.0037,-0.0037,-0.0036,-0.004,-0.0043,0,0,0,0,0,0.0018,0.0009,-0.0001,-0.0009,-0.0013,-0.0021,-0.0026,-0.003,-0.0035,-0.0037,-0.0039,-0.0038,-0.0035,-0.0035,-0.0034,-0.0032,-0.0029,-0.003,-0.003,-0.0029,-0.0032,-0.002,-0.0018,-0.0032,-0.0032,-0.0032,0,0,0.0018,0.0009,0.0005,-0.0008,-0.0015,-0.0023,-0.0024,-0.0032,-0.0037,-0.0036,-0.0041,-0.0037,-0.0034,-0.0032,-0.0031,-0.0032,-0.0024,-0.0029,-0.0028,-0.0031,-0.0019,-0.0017,-0.0016,-0.0031,-0.0031,-0.0032,0,0,0.0013,0.0006,-0.0002,-0.0009,-0.0019,-0.0024,-0.0026,-0.0036,-0.0038,-0.0042,-0.0039,-0.0033,-0.0036,-0.0029,-0.0027,-0.0022,-0.0022,-0.0022,-0.0023,-0.0011,-0.001,-0.0009,-0.0007,-0.0006,-0.0021,-0.0021,-0.0021,0,0.0015,0.0001,-0.0005,-0.0014,-0.0021,-0.0024,-0.0034,-0.0036,-0.0044,-0.0044,-0.0045,-0.0038,-0.0034,-0.0026,-0.0024,-0.0021,-0.0019,-0.0027,-0.0011,-0.001,-0.0009,-0.0007,-0.0006,-0.0021,-0.0021,-0.0021,-0.0021,0,0.0003,-0.0007,-0.0012,-0.0026,-0.0032,-0.004,-0.0046,-0.0049,-0.0051,-0.0053,-0.0048,-0.0039,-0.0035,-0.003,-0.0027,-0.0015,-0.0018,-0.0012,-0.0014,-0.0007,-0.0006,-0.0005,-0.0021,-0.0021,-0.0021,-0.0021,0,0,0.0002,-0.0017,-0.0019,-0.0028,-0.0039,-0.0047,-0.0052,-0.0059,-0.0062,-0.0059,-0.006,-0.0048,-0.0041,-0.0037,-0.0027,-0.0015,-0.0004,-0.0012,-0.0011,-0.0013,0.0014,-0.0058,-0.0064,0.0004,0.0005,0.0005,0.001,0,-0.0006,-0.0024,-0.0032,-0.0048,-0.0059,-0.0063,-0.0069,-0.0073,-0.0073,-0.0073,-0.0058,-0.0054,-0.0044,-0.004,-0.0026,-0.0006,0.0,-0.0007,0.0011,0.0011,-0.0057,-0.0065,-0.0198,-0.0211,0.0012,0.0012,0.0012,0,-0.0016,-0.0028,-0.0045,-0.0064,-0.0069,-0.0077,-0.0087,-0.0093,-0.0089,-0.0089,-0.0079,-0.0069,-0.0047,-0.0042,-0.0009,-0.0014,-0.0004,0.0009,0.001,-0.0057,-0.006,-0.018,-0.0216,-0.0251,0.0014,0.0014,0.0014,0,-0.0018,-0.0038,-0.0052,-0.0059,-0.0078,-0.0085,-0.0093,-0.0096,-0.0102,-0.0096,-0.0098,-0.0073,-0.0062,-0.0037,-0.001,-0.0009,0.0021,0.0028,-0.0031,-0.0035,-0.0147,-0.0163,-0.022,0.0041,0.0041,0.0041,0.0041,0,-0.0025,-0.0038,-0.0054,-0.0063,-0.008,-0.009,-0.0103,-0.0109,-0.0113,-0.012,-0.0105,-0.0106,-0.0061,-0.0039,-0.0014,-0.0023,0.0019,-0.004,-0.0042,-0.0152,-0.0168,-0.0201,-0.0191,0.0041,0.0041,0.0041,0.0041,0,-0.0028,-0.0038,-0.0056,-0.0075,-0.0082,-0.0094,-0.0113,-0.012,-0.0127,-0.0135,-0.0134,-0.0124,-0.0112,-0.0074,-0.0035,-0.0043,-0.0074,-0.0045,-0.0185,-0.0205,-0.0318,-0.0304,-0.0333,-0.0329,-0.0123,-0.0125,-0.0127,0,-0.0033,-0.0041,-0.0063,-0.0072,-0.0082,-0.0099,-0.011,-0.0123,-0.0132,-0.015,-0.0153,-0.0153,-0.0165,-0.0147,-0.0174,-0.0171,-0.0141,-0.0281,-0.031,-0.0356,-0.034,-0.0303,-0.0292,-0.0453,-0.0457,-0.046,-0.0463,0,-0.004,-0.0045,-0.0058,-0.0076,-0.009,-0.0105,-0.0122,-0.0132,-0.015,-0.017,-0.0194,-0.0209,-0.0252,-0.0338,-0.0356,-0.036,-0.0349,-0.0352,-0.0362,-0.0582,-0.0582,-0.0569,-0.0416,-0.0492,-0.0489,-0.0487,-0.0486,-0.0485,-0.0043,-0.005,-0.0063,-0.0082,-0.0095,-0.0109,-0.0123,-0.0147,-0.0175,-0.0223,-0.0232,-0.031,-0.0448,-0.0525,-0.0532,-0.0677,-0.0558,-0.0716,-0.0687,-0.0637,-0.0669,-0.0589,-0.069,-0.0688,-0.0686,-0.0685,-0.0684,0,-0.0047,-0.0056,-0.007,-0.0088,-0.0098,-0.0109,-0.013,-0.015,-0.0191,-0.0258,-0.0306,-0.0523,-0.0691,-0.0797,-0.0999,-0.1023,-0.097,-0.1,-0.0986,-0.0947,-0.0872,-0.0926,-0.1129,-0.1129,-0.1129,-0.1129,-0.1129,-0.1129,-0.005,-0.0062,-0.007,-0.0088,-0.01,-0.0115,-0.0129,-0.017,-0.0217,-0.0358,-0.0509,-0.061,-0.0814,-0.1151,-0.1296,-0.1261,-0.1178,-0.1206,-0.1075,-0.1059,-0.1029,-0.1002,-0.1051,-0.1277,-0.1277,-0.1197,-0.1197,-0.1196]},{"header":{"parameterUnit":"m.s-1","parameterCategory":2,"la1":30.2991,"la2":30.254,"lo1":-89.0895,"lo2":-89.0444,"dy":0.0017,"dx":0.0017,"nx":28,"ny":28,"refTime":"2023-09-03T03:00:00:Z","depth":"0","parameterNumber":3,"parameterNumberName":"V-component_of_CURRENTS"},"data":[0,0,0,0,0,0,0,0,0,0,0,0,0,0,0,0,0,0,0,0,0,0,0,0,0,0,0,0,0,0,0,0,0,0,0,0,0,0,0,0,0,0,0,0,0,0,0,0,0,0,0,0,0,0,0,0,0,0,0.0029,0.0029,0,0.0034,0.0034,0.0034,0.0038,0.0038,0.0038,0.0038,0.0035,0.0035,0.0035,0,0,0,0,0,0,0,0,0,0,0,0,0,0.0031,0.0031,0.0029,0.0029,0.0029,0.0034,0.0034,0.0034,0.0038,0.0038,0.0038,0.0038,0.0035,0.0035,0.0035,0,0,0,0,0,0,0,0,0,0,0,0,0,0.0033,0.0031,0.0029,0.0031,0.0032,0.0034,0.0034,0.0034,0.0038,0.0038,0.0038,0.0038,0.0035,0.0035,0.0035,0.0033,0,0,0.0034,0.0034,0,0,0,0,0,0,0,0,0.0033,0.0033,0.0031,0.0031,0.0031,0.0035,0.0033,0.0033,0.0038,0.0036,0.0038,0.0038,0.0034,0.0034,0.0035,0.0033,0.0033,0.0034,0.0034,0.0034,0.0034,0,0,0,0,0,0,0,0.0032,0.0032,0.0031,0.0031,0.0031,0.0035,0.0035,0.0034,0.0035,0.0036,0.0037,0.0037,0.0034,0.0035,0.0035,0.0033,0.0034,0.0034,0.0034,0.0034,0.0038,0.0038,0,0,0,0,0,0,0.0031,0.0032,0.0031,0.0031,0.0032,0.0035,0.0035,0.0034,0.0035,0.0035,0.0037,0.0037,0.0036,0.0035,0.0035,0.0039,0.0034,0.0034,0.0034,0.0038,0.0038,0.0038,0,0,0,0,0,0,0.0031,0.003,0.0031,0.0032,0.0032,0.0035,0.0034,0.0034,0.0036,0.0035,0.0035,0.0038,0.0036,0.0035,0.0036,0.0039,0.0034,0.0033,0.0037,0.0038,0.0038,0.0044,0,0,0,0,0,0,0.0031,0.003,0.0029,0.0032,0.0032,0.0032,0.0034,0.0034,0.0036,0.0036,0.0036,0.0036,0.0036,0.0037,0.0036,0.0039,0.0033,0.0037,0.0037,0.0038,0.0044,0.0045,0.0046,0,0,0,0,0,0.0031,0.0027,0.0029,0.0029,0.003,0.0032,0.0032,0.0034,0.0036,0.0036,0.0038,0.0036,0.0039,0.0037,0.0036,0.0039,0.0037,0.0037,0.0038,0.0043,0.0045,0.0046,0,0,0,0,0,0,0.0027,0.0027,0.003,0.0026,0.0029,0.0032,0.0032,0.0034,0.0037,0.0037,0.0037,0.0037,0.004,0.0038,0.0036,0.0041,0.0038,0.0038,0.0042,0.0043,0.0044,0.0049,0.0033,0,0,0,0,0,0.0026,0.0024,0.0026,0.0024,0.0025,0.0029,0.003,0.0033,0.0035,0.0036,0.0037,0.0039,0.0041,0.0041,0.0043,0.0044,0.0043,0.0046,0.0047,0.0047,0.0051,0.0054,0.0055,0.004,0.004,0.004,0,0,0.0023,0.0024,0.0023,0.0024,0.0026,0.0027,0.003,0.0031,0.0035,0.0035,0.004,0.0042,0.0043,0.0046,0.0047,0.0045,0.0051,0.0048,0.0049,0.0052,0.0054,0.0056,0.0057,0.004,0.004,0.004,0,0,0.0017,0.0019,0.0015,0.0018,0.0021,0.0025,0.0025,0.003,0.0035,0.004,0.0042,0.0047,0.0048,0.0052,0.0054,0.006,0.0056,0.0059,0.0066,0.0069,0.007,0.0071,0.007,0.0071,0.0059,0.0059,0.0059,0,0.0014,0.001,0.0014,0.0013,0.0015,0.0024,0.0023,0.003,0.0036,0.0043,0.0042,0.0054,0.0053,0.0061,0.0065,0.0062,0.0061,0.0061,0.007,0.0071,0.0072,0.0071,0.0072,0.0059,0.0059,0.0059,0.0059,0,0.0005,0.0004,0.0003,0.0005,0.0009,0.001,0.002,0.0028,0.0036,0.0045,0.0058,0.0061,0.0069,0.0069,0.0068,0.0077,0.0073,0.0071,0.0067,0.0074,0.0072,0.0073,0.006,0.006,0.006,0.0059,0,0,-0.0003,-0.0004,-0.0004,-0.0004,0.0005,0.0007,0.0019,0.0032,0.0043,0.0053,0.0068,0.0074,0.0082,0.0084,0.0085,0.0087,0.0092,0.0083,0.0083,0.0081,0.0096,0.012,0.0123,0.0091,0.0091,0.0091,0.009,0,-0.001,-0.0018,-0.0013,-0.0013,-0.0015,0.0,0.0011,0.0026,0.0043,0.0061,0.0075,0.0088,0.0086,0.0092,0.0095,0.0098,0.0096,0.0093,0.0089,0.0089,0.011,0.0126,0.0202,0.0209,0.0091,0.0091,0.0091,0,-0.0018,-0.0023,-0.0029,-0.0023,-0.0021,-0.0017,0.0006,0.0016,0.0047,0.0061,0.0083,0.0097,0.0114,0.0106,0.0115,0.0114,0.0105,0.0101,0.0101,0.0124,0.0116,0.0184,0.0215,0.0277,0.0092,0.0092,0.0092,0,-0.0028,-0.0031,-0.0037,-0.0035,-0.0027,-0.0021,-0.0011,0.0017,0.0031,0.0066,0.0084,0.0106,0.0126,0.012,0.0128,0.0119,0.0134,0.0119,0.0129,0.013,0.0195,0.0202,0.0288,0.0114,0.0114,0.0114,0.0114,0,-0.0038,-0.004,-0.0042,-0.0046,-0.0045,-0.0032,-0.002,-0.0002,0.0028,0.0051,0.0084,0.0114,0.0132,0.015,0.0135,0.0148,0.014,0.0137,0.0136,0.0199,0.0206,0.0262,0.0276,0.0114,0.0114,0.0114,0.0114,0,-0.0047,-0.0049,-0.0056,-0.0054,-0.0052,-0.005,-0.0031,-0.0019,0.0014,0.0047,0.0061,0.0125,0.0173,0.0184,0.019,0.017,0.0206,0.0164,0.0238,0.0246,0.0311,0.0322,0.0387,0.0388,0.0176,0.0176,0.0177,0,-0.0055,-0.006,-0.0066,-0.007,-0.007,-0.0065,-0.0058,-0.0031,-0.0012,0.0057,0.0075,0.0148,0.0211,0.0244,0.0262,0.0261,0.0262,0.0279,0.0276,0.0337,0.0348,0.0351,0.0346,0.036,0.0362,0.0364,0.0365,0,-0.0067,-0.0069,-0.0077,-0.0087,-0.0087,-0.0084,-0.0069,-0.0057,-0.0013,0.0023,0.0093,0.0154,0.0261,0.0354,0.0374,0.0354,0.035,0.0312,0.0366,0.0498,0.0517,0.0511,0.0329,0.038,0.0379,0.0378,0.0377,0.0376,-0.0076,-0.0085,-0.0096,-0.0105,-0.0106,-0.01,-0.0099,-0.0071,-0.004,0.0015,0.0088,0.0165,0.036,0.0446,0.0459,0.0538,0.0474,0.0534,0.0539,0.0533,0.0555,0.0402,0.0456,0.0455,0.0454,0.0454,0.0453,0,-0.0091,-0.0101,-0.0111,-0.0122,-0.0129,-0.0123,-0.0106,-0.0099,-0.0066,-0.0012,0.0053,0.0223,0.0436,0.0573,0.0754,0.0774,0.0742,0.0764,0.0804,0.078,0.0654,0.0686,0.0806,0.0806,0.0806,0.0806,0.0805,0.0805,-0.0099,-0.0118,-0.0125,-0.0144,-0.015,-0.0157,-0.0152,-0.013,-0.01,-0.0028,0.0034,0.0088,0.0339,0.0829,0.1028,0.1005,0.0993,0.1005,0.0946,0.09,0.0879,0.086,0.0895,0.1057,0.1057,0.1095,0.1096,0.1097]}],[{"header":{"parameterUnit":"m.s-1","parameterCategory":2,"la1":30.2991,"la2":30.254,"lo1":-89.0895,"lo2":-89.0444,"dy":0.0017,"dx":0.0017,"nx":28,"ny":28,"refTime":"2023-09-03T03:00:00:Z","depth":"2","parameterNumber":2,"parameterNumberName":"U-component_of_CURRENTS"},"data":[0,0,0,0,0,0,0,0,0,0,0,0,0,0,0,0,0,0,0,0,0,0,0,0,0,0,0,0,0,0,0,0,0,0,0,0,0,0,0,0,0,0,0,0,0,0,0,0,0,0,0,0,0,0,0,0,0,0,0.0085,0.0085,0,0.0072,0.0072,0.0072,0.0065,0.0065,0.0065,0.0065,0.0065,0.0065,0.0065,0,0,0,0,0,0,0,0,0,0,0,0,0,0.0117,0.0117,0.0085,0.0085,0.0085,0.0072,0.0072,0.0072,0.0065,0.0065,0.0065,0.0065,0.0065,0.0065,0.0065,0,0,0,0,0,0,0,0,0,0,0,0,0,0.0104,0.0117,0.0085,0.0079,0.0079,0.0072,0.0072,0.0072,0.0065,0.0065,0.0065,0.0065,0.0065,0.0065,0.0065,0.0067,0,0,0.0066,0.0066,0,0,0,0,0,0,0,0,0.0105,0.0103,0.008,0.008,0.0079,0.007,0.0084,0.0071,0.0065,0.0071,0.0065,0.0065,0.0068,0.0068,0.0066,0.0067,0.0067,0.0066,0.0066,0.0066,0.0066,0,0,0,0,0,0,0,0.0106,0.0103,0.008,0.008,0.0079,0.0083,0.008,0.0081,0.007,0.007,0.007,0.0068,0.0068,0.0066,0.0066,0.0067,0.0066,0.0066,0.0066,0.0066,0.0078,0.0078,0,0,0,0,0,0,0.0106,0.0104,0.0081,0.008,0.0092,0.0082,0.008,0.0073,0.007,0.0069,0.0068,0.0068,0.0066,0.0066,0.0066,0.0069,0.0066,0.0066,0.0066,0.0078,0.0078,0.0078,0,0,0,0,0,0,0.0107,0.0104,0.0081,0.0092,0.0089,0.0081,0.0074,0.0073,0.0069,0.0068,0.0067,0.0065,0.0065,0.0066,0.0067,0.0069,0.0066,0.0066,0.0077,0.0078,0.0078,0.0076,0,0,0,0,0,0,0.0108,0.0104,0.01,0.0092,0.0089,0.0076,0.0074,0.0073,0.0068,0.0067,0.0065,0.0065,0.0065,0.0067,0.0068,0.0069,0.0066,0.0077,0.0077,0.0078,0.0075,0.0076,0.0076,0,0,0,0,0,0.0109,0.0103,0.01,0.0097,0.0083,0.0076,0.0075,0.0069,0.0068,0.0065,0.0066,0.0065,0.0071,0.0068,0.0068,0.007,0.0077,0.0077,0.0078,0.0075,0.0076,0.0076,0,0,0,0,0,0,0.0114,0.0101,0.0098,0.0088,0.0083,0.0075,0.0071,0.0068,0.0067,0.0066,0.0067,0.0067,0.007,0.0071,0.0067,0.0076,0.0074,0.0075,0.0072,0.0073,0.0074,0.0069,0.0066,0,0,0,0,0,0.0114,0.0106,0.0096,0.0089,0.0085,0.0078,0.0075,0.0071,0.0068,0.0067,0.0066,0.0068,0.0073,0.0074,0.0076,0.0079,0.0083,0.0082,0.0082,0.0083,0.008,0.0095,0.0096,0.008,0.008,0.008,0,0,0.0114,0.0106,0.0101,0.0089,0.0084,0.0077,0.0076,0.0069,0.0065,0.0068,0.0063,0.0068,0.0074,0.0078,0.0079,0.0079,0.0089,0.0084,0.0084,0.0081,0.0095,0.0097,0.0098,0.0081,0.0081,0.0081,0,0,0.0109,0.0102,0.0094,0.0088,0.0079,0.0075,0.0073,0.0065,0.0063,0.0061,0.0065,0.0072,0.0072,0.008,0.0084,0.0089,0.0091,0.0091,0.0089,0.0103,0.0105,0.0106,0.0109,0.0111,0.0091,0.0091,0.0091,0,0.011,0.0096,0.0091,0.0082,0.0076,0.0074,0.0065,0.0064,0.0059,0.0059,0.0058,0.0068,0.0074,0.0084,0.0087,0.009,0.0094,0.0085,0.0104,0.0105,0.0106,0.0109,0.0111,0.0091,0.0091,0.0091,0.0091,0,0.0098,0.0088,0.0083,0.0071,0.0065,0.0058,0.0054,0.0052,0.005,0.005,0.0057,0.0067,0.0073,0.008,0.0084,0.0097,0.0096,0.0102,0.0101,0.0108,0.0111,0.0112,0.0091,0.0091,0.0091,0.0091,0,0,0.0097,0.0078,0.0077,0.0067,0.0058,0.0051,0.0047,0.0043,0.004,0.0045,0.0045,0.006,0.0067,0.0072,0.0084,0.0098,0.0112,0.0102,0.0103,0.0103,0.0135,0.0066,0.0061,0.0121,0.0122,0.0122,0.0132,0,0.0089,0.007,0.0064,0.0048,0.0037,0.0035,0.003,0.0028,0.0029,0.0031,0.0049,0.0053,0.0064,0.0068,0.0086,0.0109,0.0117,0.0108,0.0131,0.0131,0.0067,0.0061,-0.0015,-0.0019,0.0134,0.0134,0.0134,0,0.0078,0.0067,0.0049,0.0032,0.0027,0.002,0.0011,0.0006,0.0013,0.0013,0.0025,0.0037,0.0061,0.0067,0.0107,0.0101,0.0113,0.0129,0.013,0.0066,0.0065,0.0,-0.0021,0.0137,0.0137,0.0137,0.0137,0,0.0076,0.0056,0.0042,0.0035,0.0018,0.0011,0.0003,0.0002,-0.0003,0.0004,0.0002,0.0031,0.0042,0.0074,0.0106,0.0107,0.0145,0.0152,0.0099,0.0095,0.0033,0.0022,0.0169,0.0169,0.0169,0.0169,0.0169,0,0.0068,0.0055,0.0039,0.0029,0.0013,0.0003,-0.001,-0.0014,-0.0017,-0.0024,-0.0007,-0.0008,0.0044,0.0071,0.0102,0.0102,0.0143,0.009,0.009,0.0029,0.0017,0.0157,0.0156,0.0169,0.0169,0.0169,0.0169,0,0.0065,0.0054,0.0036,0.0017,0.001,-0.0003,-0.0023,-0.0029,-0.0036,-0.0043,-0.0043,-0.003,-0.0012,0.0034,0.0082,0.0081,0.0102,0.009,0.0006,-0.0006,0.0041,0.004,0.0025,0.0022,0.002,0.0018,0.0017,0,0.0061,0.0051,0.0028,0.0018,0.0008,-0.0011,-0.0022,-0.0035,-0.0044,-0.0061,-0.0064,-0.006,-0.0069,-0.0038,-0.0045,-0.0028,0.0046,-0.0077,-0.0099,0.0024,0.0026,0.0027,0.0029,-0.0173,-0.0176,-0.0178,-0.018,0,0.0053,0.0047,0.0033,0.0013,-0.0002,-0.0018,-0.0036,-0.0047,-0.0064,-0.0082,-0.0105,-0.012,-0.0147,-0.0191,-0.019,-0.0176,-0.0088,-0.0129,0.0034,-0.0136,-0.0165,-0.0162,-0.0154,-0.0201,-0.0199,-0.0197,-0.0196,-0.0195,0.0051,0.0042,0.0027,0.0007,-0.0008,-0.0024,-0.0038,-0.0061,-0.0087,-0.0126,-0.0139,-0.0201,-0.0224,-0.0296,-0.0286,-0.0295,-0.0276,-0.0262,-0.0253,-0.0242,-0.0278,-0.031,-0.038,-0.0379,-0.0378,-0.0377,-0.0377,0,0.0048,0.0037,0.0021,0.0,-0.0011,-0.0023,-0.0046,-0.0062,-0.0098,-0.0152,-0.0194,-0.0262,-0.036,-0.0367,-0.046,-0.047,-0.0434,-0.0426,-0.0392,-0.0375,-0.0359,-0.0398,-0.0533,-0.0532,-0.0532,-0.0532,0,0,0.0047,0.0033,0.0023,0.0002,-0.0013,-0.003,-0.0044,-0.0075,-0.0111,-0.0163,-0.0243,-0.0322,-0.0382,-0.0441,-0.0466,-0.0516,-0.0412,-0.0498,-0.0388,-0.033,-0.0312,-0.03,-0.0346,0,0,0,0,0]},{"header":{"parameterUnit":"m.s-1","parameterCategory":2,"la1":30.2991,"la2":30.254,"lo1":-89.0895,"lo2":-89.0444,"dy":0.0017,"dx":0.0017,"nx":28,"ny":28,"refTime":"2023-09-03T03:00:00:Z","depth":"2","parameterNumber":3,"parameterNumberName":"V-component_of_CURRENTS"},"data":[0,0,0,0,0,0,0,0,0,0,0,0,0,0,0,0,0,0,0,0,0,0,0,0,0,0,0,0,0,0,0,0,0,0,0,0,0,0,0,0,0,0,0,0,0,0,0,0,0,0,0,0,0,0,0,0,0,0,-0.0005,-0.0005,0,0.0,0.0,0.0001,0.0005,0.0005,0.0005,0.0005,-0.0001,-0.0001,-0.0001,0,0,0,0,0,0,0,0,0,0,0,0,0,-0.0005,-0.0005,-0.0005,-0.0005,-0.0005,0.0,0.0,0.0001,0.0005,0.0005,0.0005,0.0005,-0.0001,-0.0001,-0.0001,0,0,0,0,0,0,0,0,0,0,0,0,0,-0.0002,-0.0005,-0.0005,-0.0003,-0.0002,0.0,0.0,0.0001,0.0005,0.0005,0.0005,0.0005,-0.0001,-0.0001,-0.0001,-0.0003,0,0,-0.0002,-0.0002,0,0,0,0,0,0,0,0,-0.0003,-0.0002,-0.0003,-0.0003,-0.0003,0.0002,-0.0001,-0.0001,0.0005,0.0002,0.0005,0.0005,-0.0001,-0.0001,0.0,-0.0003,-0.0003,-0.0002,-0.0002,-0.0002,-0.0002,0,0,0,0,0,0,0,-0.0003,-0.0003,-0.0003,-0.0003,-0.0003,0.0001,0.0001,-0.0001,0.0,0.0002,0.0003,0.0003,-0.0001,0.0,0.0,-0.0003,-0.0002,-0.0002,-0.0002,-0.0002,0.0001,0.0001,0,0,0,0,0,0,-0.0004,-0.0003,-0.0003,-0.0003,-0.0003,0.0001,0.0001,0.0,0.0001,0.0001,0.0003,0.0003,0.0001,0.0,-0.0,0.0005,-0.0002,-0.0002,-0.0002,0.0,0.0001,0.0001,0,0,0,0,0,0,-0.0004,-0.0004,-0.0003,-0.0003,-0.0002,0.0001,-0.0,0.0,0.0002,0.0001,0.0001,0.0004,0.0001,0.0,0.0001,0.0005,-0.0002,-0.0002,0.0,0.0,0.0001,0.0011,0,0,0,0,0,0,-0.0004,-0.0005,-0.0005,-0.0003,-0.0002,-0.0002,-0.0,0.0001,0.0002,0.0002,0.0002,0.0001,0.0001,0.0001,0.0,0.0004,-0.0003,-0.0,0.0,0.0001,0.001,0.0011,0.0012,0,0,0,0,0,-0.0004,-0.0008,-0.0006,-0.0006,-0.0004,-0.0002,-0.0001,0.0001,0.0002,0.0002,0.0004,0.0001,0.0003,0.0001,0.0,0.0004,-0.0,0.0,0.0001,0.0009,0.0011,0.0012,0,0,0,0,0,0,-0.0009,-0.0007,-0.0005,-0.0008,-0.0005,-0.0001,-0.0002,0.0001,0.0003,0.0003,0.0003,0.0002,0.0005,0.0002,0.0,0.0006,0.0001,0.0002,0.0008,0.001,0.0011,0.0016,-0.0003,0,0,0,0,0,-0.001,-0.0011,-0.0008,-0.0009,-0.0008,-0.0004,-0.0003,-0.0001,0.0001,0.0002,0.0003,0.0004,0.0006,0.0006,0.0007,0.0008,0.0008,0.0011,0.0012,0.0013,0.0017,0.0021,0.0023,0.0002,0.0002,0.0002,0,0,-0.0012,-0.0011,-0.0012,-0.001,-0.0008,-0.0006,-0.0004,-0.0002,0.0003,0.0001,0.0006,0.0007,0.0007,0.0012,0.0012,0.001,0.0018,0.0013,0.0014,0.0018,0.0021,0.0023,0.0025,0.0003,0.0003,0.0003,0,0,-0.0018,-0.0016,-0.0019,-0.0015,-0.0012,-0.0007,-0.0007,-0.0002,0.0003,0.0008,0.001,0.0014,0.0015,0.0019,0.0021,0.0028,0.0023,0.0026,0.0036,0.0039,0.0041,0.0042,0.0042,0.0044,0.0026,0.0026,0.0026,0,-0.002,-0.0023,-0.0019,-0.0019,-0.0016,-0.0008,-0.0008,-0.0001,0.0005,0.0013,0.001,0.0022,0.002,0.0031,0.0034,0.0031,0.003,0.003,0.0041,0.0042,0.0044,0.0043,0.0045,0.0027,0.0027,0.0027,0.0027,0,-0.0027,-0.0028,-0.0029,-0.0025,-0.002,-0.0019,-0.0008,0.0,0.0008,0.0018,0.0031,0.0034,0.0042,0.0041,0.0039,0.005,0.0045,0.0042,0.0038,0.0046,0.0045,0.0047,0.0028,0.0027,0.0027,0.0027,0,0,-0.0035,-0.0035,-0.0034,-0.0034,-0.0023,-0.0021,-0.0007,0.0008,0.002,0.0031,0.0048,0.0053,0.006,0.0062,0.0062,0.0065,0.0072,0.0058,0.0058,0.0058,0.0077,0.0099,0.0103,0.0069,0.0069,0.0069,0.0071,0,-0.0041,-0.0047,-0.0041,-0.0039,-0.004,-0.0024,-0.0012,0.0005,0.0023,0.0043,0.0057,0.0071,0.0067,0.0072,0.0076,0.0078,0.0076,0.0071,0.0068,0.0068,0.0087,0.0106,0.0139,0.0146,0.0073,0.0073,0.0073,0,-0.0048,-0.0051,-0.0055,-0.0047,-0.0045,-0.0039,-0.0014,-0.0002,0.0032,0.0047,0.007,0.0085,0.0103,0.0092,0.0102,0.0099,0.0088,0.0084,0.0084,0.0104,0.0094,0.0126,0.0152,0.0075,0.0075,0.0075,0.0075,0,-0.0058,-0.0058,-0.0062,-0.006,-0.005,-0.0042,-0.0031,-0.0001,0.0015,0.0054,0.0073,0.0097,0.0117,0.0111,0.0117,0.0106,0.0124,0.0107,0.0114,0.0115,0.0144,0.0147,0.0103,0.0103,0.0103,0.0103,0.0103,0,-0.0066,-0.0068,-0.0068,-0.0071,-0.0069,-0.0054,-0.0039,-0.002,0.0013,0.0038,0.0073,0.0104,0.0124,0.0143,0.0127,0.0138,0.0133,0.0124,0.0122,0.0148,0.0152,0.0089,0.0088,0.0103,0.0103,0.0103,0.0103,0,-0.0076,-0.0076,-0.0082,-0.0078,-0.0075,-0.0073,-0.0052,-0.0038,-0.0002,0.0033,0.0048,0.0115,0.0163,0.0177,0.0184,0.0163,0.0159,0.0156,0.0188,0.019,0.0139,0.0138,0.0163,0.0164,0.0165,0.0166,0.0166,0,-0.0083,-0.0088,-0.0093,-0.0097,-0.0095,-0.0089,-0.0082,-0.0051,-0.0031,0.004,0.0059,0.0134,0.0195,0.0232,0.0247,0.0247,0.0203,0.0228,0.0214,0.0152,0.0148,0.0145,0.0143,0.0251,0.0252,0.0253,0.0253,0,-0.0096,-0.0098,-0.0105,-0.0115,-0.0115,-0.0111,-0.0095,-0.0082,-0.0035,0.0001,0.007,0.013,0.0235,0.0304,0.0326,0.0304,0.0235,0.0247,0.0184,0.0233,0.0236,0.0231,0.0226,0.0262,0.0261,0.0261,0.026,0.026,-0.0106,-0.0116,-0.0127,-0.0135,-0.0137,-0.013,-0.0128,-0.01,-0.0069,-0.0018,0.0055,0.0123,0.0251,0.0306,0.0344,0.0343,0.033,0.0283,0.0279,0.0275,0.0287,0.0292,0.0331,0.033,0.033,0.0329,0.0329,0,-0.0122,-0.0133,-0.0144,-0.0155,-0.0162,-0.0155,-0.0137,-0.0131,-0.0102,-0.0054,0.0006,0.0092,0.022,0.0306,0.0364,0.0394,0.0371,0.035,0.0339,0.0332,0.0325,0.0339,0.0396,0.0396,0.0396,0.0396,0,0,-0.0132,-0.0152,-0.0159,-0.018,-0.0185,-0.0193,-0.0187,-0.017,-0.0144,-0.011,-0.0079,0.003,0.0196,0.023,0.0334,0.0368,0.0304,0.0337,0.0287,0.0259,0.025,0.0303,0.0319,0,0,0,0,0]}],[{"header":{"parameterUnit":"m.s-1","parameterCategory":2,"la1":30.2991,"la2":30.254,"lo1":-89.0895,"lo2":-89.0444,"dy":0.0017,"dx":0.0017,"nx":28,"ny":28,"refTime":"2023-09-03T03:00:00:Z","depth":"4","parameterNumber":2,"parameterNumberName":"U-component_of_CURRENTS"},"data":[0,0,0,0,0,0,0,0,0,0,0,0,0,0,0,0,0,0,0,0,0,0,0,0,0,0,0,0,0,0,0,0,0,0,0,0,0,0,0,0,0,0,0,0,0,0,0,0,0,0,0,0,0,0,0,0,0,0,0.0093,0.0093,0,0.0086,0.0086,0.0086,0.0084,0.0084,0.0084,0.0084,0.0088,0.0088,0.0088,0,0,0,0,0,0,0,0,0,0,0,0,0,0.0119,0.0118,0.0093,0.0093,0.0093,0.0086,0.0086,0.0086,0.0084,0.0084,0.0084,0.0084,0.0088,0.0088,0.0088,0,0,0,0,0,0,0,0,0,0,0,0,0,0.0109,0.0118,0.0093,0.009,0.009,0.0086,0.0086,0.0086,0.0084,0.0084,0.0084,0.0084,0.0088,0.0088,0.0088,0.0089,0,0,0.0089,0.0089,0,0,0,0,0,0,0,0,0.011,0.0108,0.0091,0.0091,0.009,0.0085,0.0097,0.0088,0.0084,0.0086,0.0084,0.0084,0.0088,0.0088,0.0087,0.009,0.009,0.0089,0.0089,0.0089,0.0089,0,0,0,0,0,0,0,0.0111,0.0109,0.009,0.0091,0.009,0.0095,0.0093,0.0095,0.0088,0.0086,0.0086,0.0085,0.0088,0.0087,0.0087,0.009,0.0089,0.0089,0.0089,0.0089,0.0105,0.0105,0,0,0,0,0,0,0.011,0.0109,0.0091,0.009,0.01,0.0094,0.0093,0.0087,0.0087,0.0087,0.0085,0.0085,0.0087,0.0087,0.0088,0.0094,0.0089,0.0089,0.0089,0.0104,0.0105,0.0105,0,0,0,0,0,0,0.011,0.0108,0.0091,0.01,0.0098,0.0094,0.0088,0.0087,0.0085,0.0086,0.0086,0.0083,0.0087,0.0087,0.0091,0.0094,0.0089,0.009,0.0104,0.0104,0.0105,0.0104,0,0,0,0,0,0,0.0111,0.0108,0.0106,0.0099,0.0097,0.0088,0.0088,0.0087,0.0084,0.0084,0.0085,0.0085,0.0087,0.0091,0.0091,0.0094,0.009,0.0104,0.0104,0.0105,0.0104,0.0104,0.0105,0,0,0,0,0,0.0112,0.0107,0.0105,0.0103,0.0093,0.0088,0.0087,0.0084,0.0084,0.0083,0.0086,0.0085,0.0095,0.0091,0.0092,0.0095,0.0103,0.0104,0.0105,0.0103,0.0104,0.0105,0,0,0,0,0,0,0.0117,0.0106,0.0104,0.0096,0.0092,0.0087,0.0085,0.0084,0.0085,0.0085,0.0087,0.0088,0.0092,0.0095,0.0091,0.0102,0.01,0.0101,0.0099,0.0099,0.01,0.0095,0.009,0,0,0,0,0,0.0116,0.0109,0.0102,0.0096,0.0093,0.009,0.0088,0.0085,0.0085,0.0084,0.0086,0.009,0.0096,0.0098,0.0101,0.0106,0.0111,0.011,0.0111,0.0111,0.0108,0.0125,0.0126,0.0107,0.0107,0.0107,0,0,0.0117,0.011,0.0106,0.0097,0.0093,0.0088,0.0088,0.0084,0.0081,0.0085,0.0084,0.009,0.0097,0.0103,0.0106,0.0105,0.0119,0.0112,0.0112,0.0109,0.0126,0.0127,0.0129,0.0108,0.0108,0.0108,0,0,0.0112,0.0107,0.0099,0.0095,0.0089,0.0086,0.0085,0.008,0.008,0.0079,0.0085,0.0094,0.0097,0.0106,0.011,0.0117,0.0121,0.0119,0.0119,0.0135,0.0137,0.0139,0.0145,0.0147,0.0121,0.0121,0.0121,0,0.0114,0.0101,0.0098,0.009,0.0085,0.0085,0.0078,0.0078,0.0076,0.0078,0.0078,0.0092,0.0098,0.0111,0.0115,0.0118,0.0125,0.0115,0.0136,0.0138,0.0139,0.0145,0.0148,0.0121,0.0121,0.0121,0.0121,0,0.0103,0.0094,0.0089,0.0078,0.0075,0.0068,0.0067,0.0067,0.0068,0.0069,0.0078,0.0091,0.0098,0.0106,0.0112,0.0128,0.0128,0.0134,0.0133,0.0141,0.0147,0.0149,0.0121,0.0121,0.0121,0.0121,0,0,0.0103,0.0085,0.0083,0.0074,0.0068,0.0062,0.006,0.0059,0.0057,0.0065,0.0067,0.0085,0.0093,0.0099,0.0112,0.0129,0.0148,0.0136,0.0137,0.0139,0.0178,0.0123,0.012,0.0159,0.0159,0.0159,0.0177,0,0.0095,0.0077,0.0071,0.0056,0.0046,0.0046,0.0043,0.0044,0.0047,0.005,0.0071,0.0076,0.009,0.0095,0.0116,0.0143,0.0154,0.0142,0.0172,0.0172,0.012,0.0121,0.0161,0.0178,0.0179,0.0179,0.018,0,0.0086,0.0073,0.0057,0.004,0.0036,0.003,0.0023,0.002,0.0029,0.0031,0.0046,0.0059,0.0088,0.0095,0.0143,0.0135,0.0152,0.0171,0.0173,0.0122,0.0121,0.017,0.0184,0.0184,0.0183,0.0183,0.0183,0,0.0083,0.0064,0.0049,0.0043,0.0027,0.0021,0.0014,0.0015,0.0011,0.002,0.0018,0.0053,0.0065,0.0104,0.0144,0.0145,0.0193,0.0198,0.0162,0.0159,0.0204,0.0203,0.0221,0.0221,0.0221,0.0221,0.0221,0,0.0076,0.0063,0.0046,0.0036,0.002,0.0012,-0.0001,-0.0004,-0.0006,-0.0012,0.0007,0.0007,0.0068,0.0101,0.0141,0.0157,0.019,0.0156,0.0158,0.0203,0.0201,0.0206,0.0204,0.0221,0.0221,0.0221,0.0221,0,0.0073,0.0062,0.0043,0.0024,0.0017,0.0005,-0.0016,-0.0023,-0.0029,-0.0035,-0.0035,-0.002,0.0007,0.0064,0.0123,0.0137,0.017,0.0165,0.0203,0.0208,0.0125,0.0123,0.0121,0.0119,0.0118,0.0116,0.0115,0,0.007,0.006,0.0036,0.0025,0.0015,-0.0004,-0.0016,-0.0031,-0.004,-0.0057,-0.0059,-0.0049,-0.0035,0.0009,0.0063,0.0121,0.0122,0.0139,0.0132,0.0112,0.0114,0.0115,0.0115,0.0113,0.0112,0.0112,0.0112,0,0.0065,0.0057,0.0043,0.0021,0.0005,-0.0015,-0.0034,-0.0045,-0.0062,-0.0067,-0.0091,-0.0085,-0.007,-0.0027,0.0014,0.0058,0.0133,0.0123,0.0126,0.012,0.0102,0.0106,0.0108,0.0106,0.0107,0.0108,0.0108,0,0.0065,0.0055,0.0037,0.0016,-0.0001,-0.0021,-0.0034,-0.0057,-0.0073,-0.0093,-0.0103,-0.0093,-0.0083,-0.0062,-0.0017,0.0013,0.0011,0.0025,0.0034,0.004,0.0007,-0.0028,-0.0068,0,0,0,0,0,0.0066,0.0051,0.0032,0.0009,-0.0006,-0.0019,-0.0042,-0.0054,-0.0072,-0.0094,-0.0102,-0.0094,-0.0083,-0.0077,-0.0059,-0.0042,0.0029,-0.0022,0.0053,0.0076,0.0083,0.0051,0,0,0,0,0,0,0.0066,0.005,0.0033,0.001,-0.0006,-0.0026,-0.0041,-0.0056,-0.0072,-0.0089,-0.008,-0.0097,-0.0073,-0.0085,-0.0058,-0.0053,-0.0007,-0.0015,-0.0016,0.0073,0.0079,0.0084,0.0054,0,0,0,0,0]},{"header":{"parameterUnit":"m.s-1","parameterCategory":2,"la1":30.2991,"la2":30.254,"lo1":-89.0895,"lo2":-89.0444,"dy":0.0017,"dx":0.0017,"nx":28,"ny":28,"refTime":"2023-09-03T03:00:00:Z","depth":"4","parameterNumber":3,"parameterNumberName":"V-component_of_CURRENTS"},"data":[0,0,0,0,0,0,0,0,0,0,0,0,0,0,0,0,0,0,0,0,0,0,0,0,0,0,0,0,0,0,0,0,0,0,0,0,0,0,0,0,0,0,0,0,0,0,0,0,0,0,0,0,0,0,0,0,0,0,-0.0012,-0.0012,0,-0.0006,-0.0005,-0.0005,-0.0002,-0.0002,-0.0002,-0.0002,-0.001,-0.001,-0.001,0,0,0,0,0,0,0,0,0,0,0,0,0,-0.0014,-0.0014,-0.0012,-0.0012,-0.0012,-0.0006,-0.0005,-0.0005,-0.0002,-0.0002,-0.0002,-0.0002,-0.001,-0.001,-0.001,0,0,0,0,0,0,0,0,0,0,0,0,0,-0.0011,-0.0014,-0.0012,-0.001,-0.0009,-0.0006,-0.0005,-0.0005,-0.0002,-0.0002,-0.0002,-0.0002,-0.001,-0.001,-0.001,-0.0011,0,0,-0.0011,-0.0011,0,0,0,0,0,0,0,0,-0.0011,-0.0011,-0.001,-0.001,-0.0009,-0.0005,-0.0009,-0.0008,-0.0002,-0.0005,-0.0002,-0.0002,-0.0009,-0.001,-0.0008,-0.0011,-0.0012,-0.0011,-0.0011,-0.0011,-0.0011,0,0,0,0,0,0,0,-0.0011,-0.0011,-0.0009,-0.001,-0.001,-0.0006,-0.0006,-0.0009,-0.0007,-0.0005,-0.0004,-0.0004,-0.0009,-0.0008,-0.0008,-0.0012,-0.0011,-0.0011,-0.0011,-0.0011,-0.001,-0.001,0,0,0,0,0,0,-0.0013,-0.0011,-0.0009,-0.0009,-0.001,-0.0006,-0.0006,-0.0006,-0.0007,-0.0007,-0.0004,-0.0004,-0.0007,-0.0008,-0.0008,-0.0003,-0.0011,-0.0011,-0.0012,-0.001,-0.001,-0.0009,0,0,0,0,0,0,-0.0013,-0.0013,-0.001,-0.001,-0.0009,-0.0006,-0.0007,-0.0006,-0.0005,-0.0006,-0.0007,-0.0004,-0.0007,-0.0008,-0.0008,-0.0003,-0.0011,-0.0012,-0.001,-0.001,-0.001,0.0004,0,0,0,0,0,0,-0.0013,-0.0013,-0.0013,-0.001,-0.0009,-0.0008,-0.0007,-0.0006,-0.0005,-0.0005,-0.0006,-0.0007,-0.0007,-0.0008,-0.0009,-0.0004,-0.0012,-0.001,-0.001,-0.001,0.0004,0.0005,0.0006,0,0,0,0,0,-0.0013,-0.0015,-0.0013,-0.0013,-0.0011,-0.0008,-0.0007,-0.0005,-0.0005,-0.0004,-0.0003,-0.0007,-0.0006,-0.0008,-0.0009,-0.0004,-0.0011,-0.001,-0.001,0.0003,0.0005,0.0006,0,0,0,0,0,0,-0.0017,-0.0015,-0.0013,-0.0015,-0.0011,-0.0007,-0.0007,-0.0006,-0.0004,-0.0005,-0.0005,-0.0006,-0.0004,-0.0007,-0.0009,-0.0002,-0.0009,-0.0008,0.0001,0.0003,0.0004,0.0012,-0.0012,0,0,0,0,0,-0.0018,-0.0019,-0.0015,-0.0016,-0.0015,-0.0011,-0.001,-0.0008,-0.0006,-0.0005,-0.0005,-0.0004,-0.0002,-0.0002,-0.0002,-0.0,0.0,0.0003,0.0004,0.0005,0.0011,0.0016,0.0018,-0.0008,-0.0008,-0.0008,0,0,-0.002,-0.0019,-0.0019,-0.0017,-0.0014,-0.001,-0.001,-0.0009,-0.0002,-0.0007,-0.0,-0.0001,-0.0001,0.0004,0.0004,0.0002,0.0012,0.0006,0.0007,0.0012,0.0017,0.0019,0.0021,-0.0008,-0.0008,-0.0008,0,0,-0.0025,-0.0023,-0.0025,-0.0021,-0.0017,-0.0012,-0.0012,-0.0007,-0.0002,0.0003,0.0004,0.0008,0.0008,0.0014,0.0015,0.0023,0.0019,0.002,0.0033,0.0038,0.0041,0.0043,0.0045,0.0047,0.0021,0.0021,0.0021,0,-0.0027,-0.0028,-0.0024,-0.0023,-0.0019,-0.0013,-0.0011,-0.0003,0.0002,0.0011,0.0006,0.0019,0.0015,0.0029,0.0032,0.0027,0.0027,0.0027,0.004,0.0042,0.0044,0.0046,0.0048,0.0022,0.0022,0.0022,0.0022,0,-0.0031,-0.003,-0.0031,-0.0025,-0.002,-0.0017,-0.0006,0.0003,0.0009,0.002,0.0034,0.0035,0.0044,0.0043,0.0039,0.0053,0.0047,0.0041,0.0037,0.0048,0.0049,0.0051,0.0023,0.0023,0.0023,0.0022,0,0,-0.0038,-0.0035,-0.0034,-0.0033,-0.002,-0.0017,-0.0002,0.0015,0.0029,0.0039,0.006,0.0064,0.0069,0.0071,0.007,0.0074,0.0083,0.0063,0.0063,0.0066,0.0092,0.0105,0.0108,0.0078,0.0078,0.0079,0.0086,0,-0.0042,-0.0044,-0.0037,-0.0032,-0.0032,-0.0015,-0.0001,0.0018,0.0036,0.0059,0.0073,0.0088,0.0079,0.0084,0.0089,0.0088,0.0089,0.0081,0.008,0.008,0.0091,0.0111,0.008,0.0088,0.0088,0.0089,0.0089,0,-0.0046,-0.0048,-0.0048,-0.0037,-0.0034,-0.0026,0.0001,0.0016,0.0054,0.0069,0.0094,0.0107,0.0127,0.0112,0.0123,0.0117,0.0105,0.01,0.01,0.0111,0.0097,0.0075,0.0093,0.0092,0.0092,0.0092,0.0092,0,-0.0057,-0.0052,-0.0054,-0.0051,-0.0037,-0.0028,-0.0016,0.0018,0.0035,0.0078,0.0098,0.0126,0.0145,0.0139,0.0142,0.0128,0.0151,0.013,0.013,0.013,0.0108,0.0106,0.0129,0.0129,0.0129,0.0129,0.0129,0,-0.0063,-0.0063,-0.0061,-0.0062,-0.0058,-0.004,-0.0023,-0.0002,0.0036,0.0061,0.01,0.013,0.0152,0.0173,0.0156,0.0163,0.0163,0.0141,0.0138,0.0113,0.0111,0.011,0.0107,0.0129,0.0129,0.0129,0.0129,0,-0.0073,-0.0071,-0.0075,-0.0067,-0.0065,-0.0061,-0.0037,-0.0021,0.0018,0.0054,0.007,0.0139,0.0186,0.0205,0.0213,0.0189,0.0184,0.0179,0.0163,0.0157,0.0151,0.015,0.0177,0.0178,0.0178,0.0179,0.0179,0,-0.008,-0.0083,-0.0086,-0.0091,-0.0089,-0.0081,-0.0072,-0.0037,-0.0016,0.0058,0.0077,0.0152,0.0195,0.0228,0.0243,0.0237,0.0223,0.0201,0.0167,0.0165,0.0159,0.0156,0.0153,0.018,0.018,0.018,0.0181,0,-0.0093,-0.0094,-0.0101,-0.0112,-0.0111,-0.0105,-0.0088,-0.0073,-0.0023,0.0014,0.0086,0.013,0.02,0.024,0.0255,0.0237,0.0207,0.0206,0.0204,0.0171,0.0168,0.0161,0.0158,0.0182,0.0182,0.0182,0.0182,0,-0.0104,-0.0114,-0.0126,-0.0135,-0.0136,-0.0129,-0.0115,-0.008,-0.005,0.0031,0.0057,0.0143,0.0204,0.0241,0.0245,0.0254,0.0234,0.0182,0.0181,0.0179,0.0179,0.0175,0.0197,0,0,0,0,0,-0.0116,-0.0133,-0.0145,-0.0156,-0.0157,-0.0156,-0.0125,-0.0103,-0.0053,-0.001,0.0023,0.0089,0.0152,0.0199,0.0209,0.0239,0.0225,0.0245,0.0161,0.0193,0.0191,0.0192,0,0,0,0,0,0,-0.0125,-0.0144,-0.0154,-0.0173,-0.0183,-0.0179,-0.0161,-0.0124,-0.0091,-0.0033,0.0016,0.005,0.0129,0.0146,0.0199,0.0208,0.0142,0.029,0.0288,0.0194,0.0192,0.019,0.0191,0,0,0,0,0]}]]